Vertical_Velocity
4 1 4 1 2 -3 2 1 0 3 -0 0 -1 -7 2 -1 0 3 2 1 -2 14 1 -1 3 3 6 -4 -1 -0 2 -2
-0 5 0 -3 -3 -4 3 -1 2 -1 -3 1 -3 3 -2 2 4 2 -0 6 4 -4 -1 -4 22 10 2 2 -5 2 -3 0
9 7 6 -6 -3 2 -3 5 -1 -0 -4 1 -3 4 4 8 8 -2 6 3 5 -6 -2 6 -3 7 -3 2 5 -2 0 3
11 8 11 -2 0 1 -6 3 1 0 5 1 -3 -6 -10 -11 -10 -4 -8 -0 13 9 -4 -1 4 6 9 6 4 -3 -1 1
2 2 -0 2 4 -2 -6 -1 1 0 6 -1 -4 3 4 10 12 4 6 1 -2 -7 -0 -0 -5 -1 8 3 7 4 -2 -1
-0 -6 8 3 -6 -1 -2 1 4 3 3 1 -1 -2 3 3 -0 -1 -4 -1 3 -4 1 -1 8 2 3 8 -1 1 -1 -1
7 9 -12 7 3 1 0 2 6 -0 0 -0 -2 -1 1 -2 2 -0 3 1 2 3 -4 5 6 0 -3 3 1 -1 4 6
2 2 -5 4 7 1 0 2 1 3 1 -1 2 3 -4 2 5 1 -1 2 -5 1 -1 2 6 3 3 -5 -4 -3 -4 -0
5 -1 -4 6 7 7 7 3 4 2 1 -1 2 2 -3 4 3 1 4 1 -4 3 11 8 4 3 -4 0 1 7 5 2
2 -0 -0 3 2 0 3 4 9 2 10 -3 4 2 1 1 -2 4 -4 9 2 -0 -2 -5 3 6 2 9 2 -2 5 4
0 1 3 2 2 1 3 4 4 3 4 3 6 4 -3 6 15 19 5 11 8 1 10 3 5 1 4 -0 -1 1 3 2
7 6 1 2 -0 -0 1 1 3 -0 0 3 3 2 7 2 3 4 9 3 2 5 -0 6 -6 -4 8 5 -0 -2 1 3
17 3 4 7 9 -1 0 3 -0 4 -1 4 -1 3 0 3 4 6 12 31 0 46 11 -1 4 15 25 11 8 -0 -1 4
4 21 11 3 0 9 3 1 -2 6 -1 -1 -0 -2 -1 7 16 10 0 18 13 8 -1 -1 -1 -1 -3 0 45 49 39 5
13 7 11 2 7 -4 -0 -2 2 4 2 2 9 0 -0 -4 -2 -3 -10 -4 -9 -6 1 10 -4 2 4 2 20 -1 0 -4
15 14 26 16 -1 11 5 -1 8 2 1 2 3 7 5 5 2 -4 -0 -6 -4 -4 -1 -1 6 2 2 -0 6 20 -6 -4
13 12 -3 20 26 42 -0 16 11 3 -8 -6 2 1 5 4 -0 96 -12 -3 -4 -6 -4 2 4 -1 -1 -2 -6 -3 -8 0
6 1 5 8 6 17 31 11 20 15 11 1 16 -0 -2 2 4 8 -30 60 1 2 -2 -3 6 2 1 4 -1 -2 -7 -1
-0 5 4 -2 2 2 1 15 1 19 4 4 3 2 1 -0 5 3 10 11 -6 -8 -1 -0 -5 -0 -2 -1 4 3 -2 -1
Height
5708 5711 5712 5712 5715 5719 5722 5729 5735 5739 5744 5746 5747 5750 5756 5762 5768 5776 5782 5787 5791 5793 5798 5800 5801 5805 5808 5813 5818 5822 5826 5829
5694 5697 5699 5701 5703 5707 5713 5717 5726 5729 5733 5736 5740 5742 5748 5752 5760 5767 5773 5777 5784 5788 5791 5794 5797 5798 5802 5807 5810 5815 5819 5825
5679 5687 5691 5691 5693 5698 5704 5707 5715 5719 5722 5728 5731 5735 5740 5746 5750 5756 5763 5769 5774 5779 5783 5787 5790 5790 5794 5799 5802 5808 5814 5819
5661 5668 5675 5680 5683 5686 5692 5697 5703 5709 5714 5718 5721 5724 5727 5731 5736 5743 5751 5759 5766 5771 5776 5781 5784 5786 5789 5791 5795 5800 5807 5811
5646 5654 5659 5666 5672 5677 5681 5687 5693 5700 5704 5707 5711 5717 5721 5728 5733 5738 5744 5749 5756 5763 5766 5772 5777 5779 5782 5785 5788 5793 5797 5803
5634 5640 5646 5653 5660 5664 5670 5676 5681 5689 5692 5698 5703 5708 5714 5719 5722 5728 5734 5740 5746 5753 5758 5764 5768 5771 5775 5777 5781 5785 5790 5795
5617 5625 5632 5641 5648 5654 5660 5665 5670 5677 5682 5688 5693 5699 5704 5708 5714 5720 5724 5729 5735 5742 5748 5754 5760 5764 5767 5771 5774 5777 5782 5785
5597 5607 5619 5629 5636 5644 5652 5656 5659 5666 5672 5677 5686 5690 5694 5699 5705 5710 5714 5721 5725 5733 5738 5744 5750 5757 5759 5763 5766 5770 5774 5778
5581 5590 5603 5614 5623 5630 5638 5645 5651 5655 5663 5669 5678 5682 5685 5690 5696 5700 5705 5711 5717 5723 5726 5732 5740 5744 5748 5752 5756 5760 5764 5768
5572 5578 5586 5596 5607 5616 5624 5633 5640 5646 5654 5660 5666 5673 5677 5681 5688 5692 5696 5698 5704 5710 5715 5718 5725 5730 5735 5740 5744 5748 5752 5758
5560 5568 5574 5582 5594 5604 5612 5619 5627 5634 5643 5650 5657 5663 5668 5673 5677 5680 5685 5688 5692 5697 5701 5706 5713 5717 5722 5726 5731 5736 5741 5747
5551 5558 5565 5574 5583 5592 5600 5607 5614 5622 5630 5637 5645 5652 5657 5662 5666 5671 5674 5679 5681 5686 5691 5695 5695 5705 5711 5715 5717 5724 5728 5734
5542 5549 5555 5564 5574 5580 5588 5595 5602 5611 5617 5622 5631 5639 5645 5649 5653 5659 5663 5666 5671 5672 5679 5684 5688 5692 5696 5699 5702 5712 5716 5721
5531 5536 5544 5552 5561 5570 5577 5585 5592 5599 5605 5610 5616 5623 5630 5636 5641 5645 5650 5653 5659 5664 5670 5675 5679 5685 5688 5689 5688 5689 5697 5703
5522 5528 5531 5538 5548 5557 5566 5572 5580 5588 5595 5601 5605 5613 5618 5623 5629 5635 5641 5644 5650 5657 5661 5665 5668 5675 5678 5679 5681 5686 5690 5691
5515 5521 5521 5530 5539 5545 5552 5562 5570 5576 5584 5590 5595 5600 5607 5612 5617 5623 5628 5633 5636 5641 5647 5652 5658 5664 5667 5671 5672 5674 5679 5684
5508 5511 5515 5517 5525 5529 5541 5548 5553 5562 5569 5576 5583 5589 5594 5599 5605 5606 5614 5617 5626 5628 5631 5637 5644 5649 5654 5660 5664 5664 5670 5677
5503 5506 5509 5511 5516 5518 5523 5532 5536 5545 5552 5562 5568 5574 5580 5585 5590 5595 5599 5597 5611 5618 5622 5624 5628 5635 5641 5646 5653 5656 5657 5662
5500 5503 5507 5506 5509 5513 5516 5520 5517 5528 5539 5546 5553 5560 5565 5568 5575 5580 5584 5587 5593 5600 5606 5610 5614 5618 5624 5631 5636 5641 5646 5651